Tracking 29892 objects as of 21-Nov-2024
HD Live streaming from Space Station
objects crossing your sky now

STARLINK-32428

Track STARLINK-32428 now!
10-day predictions
STARLINK-32428 is classified as:


NORAD ID: 61666
Int'l Code: 2024-193F
Perigee: 421.5 km
Apogee: 436.8 km
Inclination: 53.2 °
Period: 93.0 minutes
Semi major axis: 6800 km
RCS: Unknown
Launch date: October 26, 2024
Source: United States (US)
Launch site: AIR FORCE EASTERN TEST RANGE (AFETR)
Your satellite tracking list
Your tracking list is empty




NASA's NSSDC Master Catalog

Two Line Element Set (TLE):
1 61666U 24193F   24325.96897729 -.00408219  00000-0 -80022-2 0  9997
2 61666  53.1594 135.9547 0011288 357.9774   2.1187 15.48189184  5159
Source of the keplerian elements: AFSPC